THORAD AGENA D DEB, 4768

Orbit data source: Space-Track

THORAD AGENA D DEB, 4768 is space debris in SSO originally from a launch on Wed, 08 Apr 1970 UTC launched from the Air Force Western Test Range (AFWTR). Debris objects in space refer to the collection of defunct objects orbiting the Earth. Examples of debris include non-operational satellites, rocket bodies, and fragments generated from explosions, collisions, or faulty payload assembly.

Loading next visibility...
Identifier
4768, 1970-025DN
Orbit
SSO
Country
Flag of USUS
Related business
Manufacturer
Unknown
Mission
Spacecraft
Bus & Motor
Unknown
Mass
Unknown
Launch date (UTC)
1970-04-08 (56 years ago)
Launch vehicle
Unknown
Launch site
Air Force Western Test Range (AFWTR)
Object type
Payload
Rocket body
Debris
Shape & HBR
Unknown shape, 0.1 m
Radar Cross Section
Small (<0.1 m²)

Expand to show TLE details & history
Last TLE update: 1 day ago

TLE from 1 day ago
0 THORAD AGENA D DEB
1 04768U 70025DN  26132.05504164  .00000233  00000-0  31192-3 0  9995
2 04768 100.1654 175.3726 0031416 111.1001 279.1413 13.71726295792902
Epoch: 2026-05-12T01:19Z
TLE epoch observation values (Epoch: 2026-05-12T01:19:15.597Z)
Latitude
29.41924°
Longitude
-80.05033°
Altitude
993.329 km
Speed
7.359 km/s
True Right ascension
11h 18m 23s
True Declination
29° 16' 37"
Sunlit
Object was in daylight at epoch
Visualization orbit readout
Latitude
Unknown
Longitude
Unknown
Altitude
Unknown
Speed
Unknown
Apparent Right ascension
Unknown
Apparent Declination
Unknown
Sunlit
N/A
Visualization observer readout
Local Sidereal Time
11:03:15
Azimuth
Unknown
Elevation
Unknown
Doppler factor
Unknown
Orbital elements
Apogee altitude
1,013.827 km
Perigee altitude
967.527 km
Semi-major axis
7,368.814 km
Eccentricity
0.00314
Inclination
100.1654°
RAAN
175.3726°
Arg. of periapsis
111.1001°
True anomaly
278.78565°
Mean anomaly
279.1413°
Eccentric anomaly
278.9635°
Mean motion
3.43121 °/min
Orbital period
104.92 mins
BSTAR
0.00031192

Documentation

Showing up to 5 results
|